When you browse on this site, cookies collect data to enhance your experience and personalize the content and advertising you see.
Visit our Privacy Policy to learn more. By continuing to use the site, you agree to this use of cookies and data.

Hourly Weather Newcastle upon Tyne

Today, 10 July, Friday

Time Temperature Precipitation Wind Pressure Humidity
00:00 +11°C° 0 mm 1 mps 754 mmHg 88%
01:00 +11°C° 0.8 mm 1 mps 754 mmHg 90%
02:00 +11°C° 0.8 mm 1 mps 754 mmHg 91%
03:00 +11°C° 0.8 mm 1 mps 754 mmHg 93%
04:00 +11°C° 0.1 mm 1 mps 754 mmHg 92%
05:00 +11°C° 0.1 mm 1 mps 754 mmHg 90%
06:00 +12°C° 0 mm 2 mps 754 mmHg 89%
07:00 +12°C° 0.3 mm 2 mps 755 mmHg 88%
08:00 +12°C° 0.3 mm 3 mps 755 mmHg 86%
09:00 +12°C° 0.3 mm 3 mps 755 mmHg 85%
10:00 +13°C° 0.5 mm 3 mps 755 mmHg 81%
11:00 +14°C° 0.5 mm 3 mps 756 mmHg 78%
12:00 +15°C° 0.5 mm 2 mps 756 mmHg 74%
13:00 +16°C° 0.6 mm 2 mps 756 mmHg 72%
14:00 +16°C° 0.6 mm 2 mps 756 mmHg 70%
15:00 +17°C° 0.6 mm 2 mps 757 mmHg 68%
16:00 +16°C° 0.5 mm 2 mps 757 mmHg 71%
17:00 +16°C° 0.5 mm 2 mps 757 mmHg 74%
18:00 +16°C° 0.5 mm 3 mps 757 mmHg 77%
19:00 +14°C° 0.2 mm 3 mps 758 mmHg 79%
20:00 +13°C° 0.2 mm 4 mps 758 mmHg 82%
21:00 +11°C° 0.2 mm 4 mps 758 mmHg 84%
22:00 +10°C° 0 mm 5 mps 759 mmHg 85%
23:00 +9°C° 0 mm 5 mps 759 mmHg 87%

Tomorrow, 11 July, Saturday

Time Temperature Precipitation Wind Pressure Humidity
00:00 +9°C° 0 mm 5 mps 759 mmHg 88%
01:00 +8°C° 0 mm 5 mps 759 mmHg 88%
02:00 +8°C° 0 mm 5 mps 759 mmHg 88%
03:00 +7°C° 0 mm 5 mps 759 mmHg 88%
04:00 +8°C° 0 mm 5 mps 760 mmHg 88%
05:00 +8°C° 0 mm 4 mps 760 mmHg 87%
06:00 +10°C° 0 mm 4 mps 760 mmHg 86%
07:00 +11°C° 0 mm 4 mps 761 mmHg 81%
08:00 +13°C° 0 mm 4 mps 761 mmHg 75%
09:00 +14°C° 0 mm 4 mps 761 mmHg 70%
10:00 +15°C° 0 mm 4 mps 762 mmHg 69%
11:00 +15°C° 0 mm 4 mps 762 mmHg 67%
12:00 +17°C° 0 mm 4 mps 762 mmHg 66%
13:00 +17°C° 0 mm 4 mps 762 mmHg 65%
14:00 +17°C° 0 mm 4 mps 762 mmHg 65%
15:00 +17°C° 0 mm 4 mps 763 mmHg 65%
16:00 +17°C° 0.1 mm 4 mps 763 mmHg 67%
17:00 +17°C° 0.1 mm 4 mps 763 mmHg 70%
18:00 +15°C° 0.1 mm 4 mps 763 mmHg 72%
19:00 +14°C° 0 mm 4 mps 763 mmHg 75%
20:00 +13°C° 0 mm 3 mps 763 mmHg 79%
21:00 +12°C° 0 mm 3 mps 764 mmHg 82%
22:00 +11°C° 0 mm 3 mps 764 mmHg 84%
23:00 +11°C° 0 mm 3 mps 763 mmHg 86%

Day after tomorrow, 12 July, Sunday

Time Temperature Precipitation Wind Pressure Humidity
00:00 +10°C° 0 mm 3 mps 763 mmHg 88%
01:00 +10°C° 0 mm 3 mps 763 mmHg 88%
02:00 +9°C° 0 mm 3 mps 763 mmHg 88%
03:00 +9°C° 0 mm 3 mps 763 mmHg 89%
04:00 +10°C° 0 mm 3 mps 763 mmHg 86%
05:00 +10°C° 0 mm 3 mps 764 mmHg 83%
06:00 +11°C° 0 mm 3 mps 764 mmHg 81%
07:00 +12°C° 0 mm 3 mps 764 mmHg 76%
08:00 +14°C° 0 mm 3 mps 764 mmHg 72%
09:00 +16°C° 0 mm 3 mps 764 mmHg 67%
10:00 +17°C° 0 mm 3 mps 764 mmHg 66%
11:00 +18°C° 0 mm 3 mps 764 mmHg 64%
12:00 +19°C° 0 mm 3 mps 764 mmHg 63%
13:00 +19°C° 0 mm 3 mps 764 mmHg 63%
14:00 +19°C° 0 mm 3 mps 764 mmHg 64%
15:00 +19°C° 0 mm 3 mps 764 mmHg 64%
16:00 +19°C° 0 mm 3 mps 763 mmHg 67%
17:00 +18°C° 0 mm 3 mps 763 mmHg 70%
18:00 +18°C° 0 mm 3 mps 763 mmHg 72%
19:00 +17°C° 0 mm 3 mps 763 mmHg 76%
20:00 +14°C° 0 mm 3 mps 763 mmHg 80%
21:00 +14°C° 0 mm 2 mps 763 mmHg 84%
22:00 +12°C° 0 mm 3 mps 763 mmHg 84%
23:00 +12°C° 0 mm 3 mps 763 mmHg 84%

13 July, Monday

Time Temperature Precipitation Wind Pressure Humidity
00:00 +11°C° 0 mm 3 mps 762 mmHg 83%
01:00 +11°C° 0 mm 3 mps 762 mmHg 79%
02:00 +12°C° 0 mm 3 mps 762 mmHg 75%
03:00 +12°C° 0 mm 3 mps 761 mmHg 70%
04:00 +12°C° 0 mm 3 mps 761 mmHg 72%
05:00 +12°C° 0 mm 3 mps 761 mmHg 74%
06:00 +13°C° 0 mm 3 mps 760 mmHg 75%
07:00 +13°C° 0 mm 3 mps 760 mmHg 76%
08:00 +14°C° 0 mm 4 mps 760 mmHg 77%
09:00 +14°C° 0 mm 4 mps 760 mmHg 78%
10:00 +14°C° 0.2 mm 4 mps 760 mmHg 80%
11:00 +14°C° 0.2 mm 4 mps 759 mmHg 82%
12:00 +15°C° 0.2 mm 4 mps 759 mmHg 84%
13:00 +15°C° 0.1 mm 4 mps 759 mmHg 84%
14:00 +15°C° 0.1 mm 4 mps 758 mmHg 84%
15:00 +15°C° 0.1 mm 5 mps 758 mmHg 84%
16:00 +15°C° 0.1 mm 4 mps 757 mmHg 84%
17:00 +15°C° 0.1 mm 4 mps 757 mmHg 85%
18:00 +17°C° 0.1 mm 4 mps 757 mmHg 85%
19:00 +15°C° 0.2 mm 4 mps 757 mmHg 86%
20:00 +15°C° 0.2 mm 4 mps 756 mmHg 87%
21:00 +16°C° 0.2 mm 3 mps 756 mmHg 89%
22:00 +16°C° 0.1 mm 3 mps 756 mmHg 90%
23:00 +14°C° 0.1 mm 3 mps 756 mmHg 91%

14 July, Tuesday

Time Temperature Precipitation Wind Pressure Humidity
00:00 +14°C° 0.1 mm 3 mps 756 mmHg 92%
01:00 +14°C° 0.1 mm 3 mps 755 mmHg 92%
02:00 +14°C° 0.1 mm 3 mps 755 mmHg 92%
03:00 +14°C° 0.1 mm 2 mps 755 mmHg 92%
04:00 +13°C° 0 mm 3 mps 755 mmHg 90%
05:00 +14°C° 0 mm 3 mps 755 mmHg 88%
06:00 +14°C° 0 mm 3 mps 755 mmHg 87%
07:00 +16°C° 0 mm 3 mps 755 mmHg 81%
08:00 +17°C° 0 mm 3 mps 755 mmHg 76%
09:00 +18°C° 0 mm 4 mps 755 mmHg 70%
10:00 +19°C° 0.1 mm 3 mps 754 mmHg 68%
11:00 +19°C° 0.1 mm 3 mps 754 mmHg 66%
12:00 +20°C° 0.1 mm 3 mps 754 mmHg 64%
13:00 +19°C° 0.1 mm 3 mps 754 mmHg 66%
14:00 +19°C° 0.1 mm 3 mps 754 mmHg 68%
15:00 +19°C° 0.1 mm 3 mps 754 mmHg 70%
16:00 +18°C° 0.1 mm 3 mps 754 mmHg 71%
17:00 +18°C° 0.1 mm 3 mps 754 mmHg 73%
18:00 +18°C° 0.1 mm 3 mps 754 mmHg 74%
19:00 +16°C° 0 mm 3 mps 754 mmHg 78%
20:00 +14°C° 0 mm 3 mps 754 mmHg 82%
21:00 +13°C° 0 mm 3 mps 754 mmHg 87%
22:00 +13°C° 0 mm 3 mps 753 mmHg 86%
23:00 +13°C° 0 mm 3 mps 753 mmHg 86%

15 July, Wednesday

Time Temperature Precipitation Wind Pressure Humidity
00:00 +13°C° 0 mm 3 mps 753 mmHg 85%
01:00 +14°C° 0.2 mm 2 mps 753 mmHg 87%
02:00 +13°C° 0.2 mm 2 mps 752 mmHg 89%
03:00 +13°C° 0.2 mm 2 mps 752 mmHg 92%
04:00 +13°C° 0.5 mm 2 mps 752 mmHg 93%
05:00 +13°C° 0.5 mm 2 mps 752 mmHg 93%
06:00 +14°C° 0.5 mm 2 mps 752 mmHg 94%
07:00 +14°C° 0.3 mm 2 mps 752 mmHg 94%
08:00 +14°C° 0.3 mm 2 mps 752 mmHg 93%
09:00 +15°C° 0.3 mm 2 mps 752 mmHg 93%
10:00 +15°C° 0 mm 2 mps 752 mmHg 91%
11:00 +16°C° 0 mm 3 mps 752 mmHg 90%
12:00 +16°C° 0 mm 3 mps 753 mmHg 89%
13:00 +17°C° 0 mm 3 mps 753 mmHg 86%
14:00 +18°C° 0 mm 3 mps 753 mmHg 83%
15:00 +19°C° 0 mm 4 mps 753 mmHg 80%
16:00 +18°C° 0 mm 4 mps 753 mmHg 82%
17:00 +18°C° 0 mm 4 mps 753 mmHg 83%
18:00 +18°C° 0 mm 4 mps 754 mmHg 84%
19:00 +17°C° 0 mm 4 mps 754 mmHg 86%
20:00 +15°C° 0 mm 4 mps 754 mmHg 88%
21:00 +15°C° 0 mm 4 mps 755 mmHg 90%
22:00 +14°C° 0 mm 4 mps 755 mmHg 91%
23:00 +14°C° 0 mm 4 mps 755 mmHg 92%
Show more